Weather History for LKTB - November, 2013

Change the Weather History Date:

Tuesday, November 5, 2013

  Actual Average Record
Temperature  
Mean Temperature 43 °F -  
Max Temperature 49 °F 42 °F - ()
Min Temperature 37 °F 33 °F - ()
Degree Days  
Heating Degree Days 22    
Moisture  
Dew Point 40 °F    
Average Humidity 83    
Maximum Humidity 100    
Minimum Humidity 47    
Precipitation  
Precipitation 0.01 in 0.05 in - ()
Sea Level Pressure  
Sea Level Pressure 29.48 in    
Wind  
Wind Speed 4 mph ()    
Max Wind Speed 14 mph    
Max Gust Speed -    
Visibility 4.5 miles    
Events Rain    
T = Trace of Precipitation, MM = Missing Value Source: Averaged Metar Reports

Daily Weather History Graph

Daily Weather History Graph

Search for Another Location

Airport or City:

Trip Planner

Search our weather history database for the weather conditions in past years. The results will help you decide how hot, cold, wet, or windy it might be!

Date:

Astronomy

Nov. 05, 2013 Rise Set
Actual Time 6:47 AM CET 4:25 PM CET
Civil Twilight 6:13 AM CET 4:59 PM CET
Nautical Twilight 5:35 AM CET 5:37 PM CET
Astronomical Twilight 4:58 AM CET 6:14 PM CET
Moon 8:51 AM CET (11/5) 6:01 PM CET (11/5)
Length of Visible Light 10h 45m
Length of Day
9h 38m
Waxing Crescent, 5% of the Moon is Illuminated
Nov 5
Waxing Crescent
Nov 10
First Quarter
Nov 17
Full
Nov 25
Last Quarter
Dec 3
New

Hourly Weather History & Observations

Time (CET) Temp. Windchill Dew Point Humidity Pressure Visibility Wind Dir Wind Speed Gust Speed Precip Events Conditions
12:00 AM 48.2 °F - 44.6 °F 87% 29.42 in 6.2 mi East 4.6 mph - N/A   Overcast
12:30 AM 48.2 °F - 46.4 °F 93% 29.42 in 6.2 mi Variable 2.3 mph - N/A   Overcast
1:00 AM 47 °F - 45 °F 92% 29.43 in 6 mi ESE 4.5 mph - -   Overcast
1:00 AM 48.2 °F - 44.6 °F 87% 29.42 in 6.2 mi ESE 3.5 mph - N/A   Overcast
1:30 AM 46.4 °F - 44.6 °F 93% 29.42 in 6.2 mi Variable 2.3 mph - N/A   Mostly Cloudy
2:00 AM 46.4 °F 45.2 °F 44.6 °F 93% 29.42 in 5.0 mi SSE 3.5 mph - N/A   Overcast
2:06 AM 46.4 °F 45.2 °F 44.6 °F 93% 29.42 in 5.0 mi South 3.5 mph - N/A Rain Light Rain
2:30 AM 46.4 °F - 44.6 °F 93% 29.42 in 4.3 mi South 2.3 mph - N/A Rain Light Rain
3:00 AM 46.4 °F - 44.6 °F 93% 29.42 in 4.3 mi South 2.3 mph - N/A Rain Light Rain
3:30 AM 46.4 °F - 44.6 °F 93% 29.42 in 3.1 mi SSW 2.3 mph - N/A Rain Light Rain
3:34 AM 46.4 °F 45.2 °F 44.6 °F 93% 29.42 in 2.5 mi SSW 3.5 mph - N/A Rain Light Rain
3:41 AM 46.4 °F 44.3 °F 44.6 °F 93% 29.44 in 2.5 mi SW 4.6 mph - N/A Rain Light Rain
4:00 AM 46.4 °F 43.5 °F 44.6 °F 93% 29.44 in 1.9 mi SSW 5.8 mph - N/A Rain Light Rain
4:18 AM 44.6 °F 42.2 °F 44.6 °F 100% 29.44 in 1.6 mi South 4.6 mph - N/A Rain Light Rain
4:30 AM 44.6 °F 41.4 °F 44.6 °F 100% 29.44 in 1.2 mi South 5.8 mph - N/A Rain Light Rain
4:35 AM 44.6 °F 42.2 °F 44.6 °F 100% 29.44 in 0.9 mi South 4.6 mph - N/A Rain Light Rain
5:00 AM 44.6 °F 42.2 °F 44.6 °F 100% 29.44 in 1.4 mi SSW 4.6 mph - N/A Rain Light Rain
5:10 AM 44.6 °F 41.4 °F 44.6 °F 100% 29.44 in 1.9 mi SSW 5.8 mph - N/A Rain Light Rain
5:30 AM 44.6 °F 43.1 °F 44.6 °F 100% 29.44 in 1.9 mi South 3.5 mph - N/A Rain Light Rain
6:00 AM 44.6 °F - 42.8 °F 93% 29.44 in 2.2 mi South 2.3 mph - N/A Rain Light Rain
6:30 AM 44.6 °F - 42.8 °F 93% 29.44 in - SSE 2.3 mph - N/A Rain Light Rain
6:38 AM 44.6 °F - 42.8 °F 93% 29.47 in 1.1 mi ESE 2.3 mph - N/A Rain Light Rain
7:00 AM 45 °F - 44 °F 95% 29.49 in 1 mi ESE 2.2 mph - - Rain Light Rain
7:00 AM 44.6 °F 43.1 °F 44.6 °F 100% 29.47 in 1.1 mi ESE 3.5 mph - N/A Rain Light Rain
7:11 AM 44.6 °F - 44.6 °F 100% 29.47 in 1.1 mi Variable 2.3 mph - N/A Rain Light Rain
7:30 AM 44.6 °F - 44.6 °F 100% 29.47 in 1.2 mi Variable 1.2 mph - N/A Rain Light Rain
7:50 AM 44.6 °F 43.1 °F 44.6 °F 100% 29.47 in 1.9 mi SW 3.5 mph - N/A Rain Light Rain
8:00 AM 44.6 °F 43.1 °F 44.6 °F 100% 29.50 in - SW 3.5 mph - N/A Rain Light Rain
8:30 AM 44.6 °F 41.4 °F 44.6 °F 100% 29.50 in 1.9 mi West 5.8 mph - N/A Rain Light Rain
9:00 AM 46.4 °F 45.2 °F 44.6 °F 93% 29.50 in 1.9 mi West 3.5 mph - N/A Rain Light Rain
9:30 AM 46.4 °F 43.5 °F 44.6 °F 93% 29.53 in 2.5 mi WNW 5.8 mph - N/A Rain Light Rain
9:44 AM 46.4 °F 42.9 °F 44.6 °F 93% 29.53 in 3.7 mi WNW 6.9 mph - N/A Rain Light Rain
10:00 AM 48.2 °F - 44.6 °F 87% 29.53 in 6.2 mi NNW 8.1 mph - N/A Rain Light Rain
10:30 AM 48.2 °F - 42.8 °F 82% 29.53 in 6.2 mi NW 6.9 mph - N/A   Partly Cloudy
11:00 AM 48.2 °F - 42.8 °F 82% 29.53 in 6.2 mi NW 9.2 mph - N/A   Partly Cloudy
11:30 AM 48.2 °F - 41.0 °F 76% 29.53 in 6.2 mi WNW 11.5 mph - N/A   Mostly Cloudy
12:00 PM 48.2 °F - 37.4 °F 66% 29.53 in 6.2 mi NW 11.5 mph - N/A   Partly Cloudy
12:30 PM 48.2 °F - 37.4 °F 66% 29.53 in 6.2 mi WNW 13.8 mph - N/A   Partly Cloudy
1:00 PM 49 °F - 35 °F 47% 29.55 in 25 mi WNW 8.9 mph - -   Partly Cloudy
1:00 PM 48.2 °F - 35.6 °F 62% 29.53 in 6.2 mi WNW 9.2 mph - N/A   Partly Cloudy
1:30 PM 48.2 °F - 35.6 °F 62% 29.53 in 6.2 mi WNW 9.2 mph - N/A   Partly Cloudy
2:00 PM 48.2 °F - 35.6 °F 62% 29.50 in 6.2 mi NW 8.1 mph - N/A   Partly Cloudy
2:30 PM 48.2 °F - 35.6 °F 62% 29.50 in 6.2 mi NW 8.1 mph - N/A   Partly Cloudy
3:00 PM 48.2 °F - 33.8 °F 58% 29.53 in 6.2 mi WNW 6.9 mph - N/A   Partly Cloudy
3:30 PM 48.2 °F - 32.0 °F 54% 29.50 in 6.2 mi WNW 10.4 mph - N/A   Partly Cloudy
4:00 PM 46.4 °F 44.3 °F 33.8 °F 62% 29.50 in 6.2 mi West 4.6 mph - N/A   Partly Cloudy
4:30 PM 46.4 °F 42.9 °F 33.8 °F 62% 29.50 in 6.2 mi West 6.9 mph - N/A   Partly Cloudy
5:00 PM 44.6 °F 40.7 °F 35.6 °F 71% 29.50 in 6.2 mi West 6.9 mph - N/A   Partly Cloudy
5:30 PM 44.6 °F 40.7 °F 33.8 °F 66% 29.50 in 6.2 mi West 6.9 mph - N/A   Partly Cloudy
6:00 PM 44.6 °F 39.7 °F 33.8 °F 66% 29.50 in 6.2 mi West 9.2 mph - N/A   Partly Cloudy
6:30 PM 44.6 °F 40.7 °F 33.8 °F 66% 29.53 in 6.2 mi West 6.9 mph - N/A   Partly Cloudy
7:00 PM 42 °F - 34 °F 63% 29.55 in 19 mi West 6.7 mph - -   Scattered Clouds
7:00 PM 42.8 °F 39.3 °F 33.8 °F 70% 29.53 in - West 5.8 mph - N/A   Clear
7:30 PM 41.0 °F 35.8 °F 33.8 °F 76% 29.50 in - West 8.1 mph - N/A   Clear
8:00 PM 41.0 °F 37.1 °F 33.8 °F 76% 29.50 in - WNW 5.8 mph - N/A   Clear
8:30 PM 41.0 °F 37.1 °F 33.8 °F 76% 29.50 in 6.2 mi West 5.8 mph - N/A   Scattered Clouds
9:00 PM 39.2 °F 34.2 °F 33.8 °F 81% 29.50 in - West 6.9 mph - N/A   Clear
9:30 PM 39.2 °F 35.0 °F 33.8 °F 81% 29.50 in - West 5.8 mph - N/A   Clear
10:00 PM 39.2 °F 35.0 °F 33.8 °F 81% 29.50 in - West 5.8 mph - N/A   Clear
10:30 PM 37.4 °F 34.9 °F 33.8 °F 87% 29.50 in - Variable 3.5 mph - N/A   Clear
11:00 PM 37.4 °F - 32.0 °F 81% 29.50 in - Variable 2.3 mph - N/A   Clear
11:30 PM 37.4 °F - 32.0 °F 81% 29.50 in - Variable 1.2 mph - N/A   Clear